This is the latest recevied weather packets stored in our database for station/object W9PEM-13. If no packets are shown the sender has not sent any weather packets the latest 10 day(s).
| Time | Temp. | Humidity | Pressure | Rain* | Wind** | Luminosity | Snow |
|---|---|---|---|---|---|---|---|
| 1787429512 | 25.56° C | 55% | 1013.2 hPa | 0 mm | - | 784 W/m² | - |
| 1787429190 | 25.56° C | 55% | 1013.2 hPa | 0 mm | - | 784 W/m² | - |
| 1787428780 | 24.44° C | 56% | 1013.3 hPa | 0 mm | - | 545 W/m² | - |
| 1787428360 | 24.44° C | 58% | 1013.5 hPa | 0 mm | - | 277 W/m² | - |
| 1787427989 | 24.44° C | 58% | 1013.5 hPa | 0 mm | - | 277 W/m² | - |
| 1787427585 | 25° C | 56% | 1013.6 hPa | 0 mm | - | 881 W/m² | - |
| 1787426976 | 24.44° C | 60% | 1013.6 hPa | 0 mm | - | 818 W/m² | - |
| 1787426787 | 24.44° C | 60% | 1013.6 hPa | 0 mm | - | 818 W/m² | - |
| 1787426673 | 24.44° C | 61% | 1013.3 hPa | 0 mm | - | 892 W/m² | - |
| 1787426187 | 24.44° C | 61% | 1013.3 hPa | 0 mm | - | 892 W/m² | - |
| 1787425880 | 24.44° C | 62% | 1013.4 hPa | 0 mm | - | 873 W/m² | - |
| 1787425586 | 24.44° C | 62% | 1013.4 hPa | 0 mm | - | 873 W/m² | - |
| 1787425295 | 25° C | 62% | 1013.4 hPa | 0 mm | - | 722 W/m² | - |
| 1787424794 | 25° C | 62% | 1013.5 hPa | 0 mm | - | 931 W/m² | - |
| 1787424386 | 25° C | 62% | 1013.5 hPa | 0 mm | - | 931 W/m² | - |
| 1787424071 | 24.44° C | 62% | 1013.5 hPa | 0 mm | - | 862 W/m² | - |
| 1787423545 | 24.44° C | 65% | 1013.6 hPa | 0 mm | - | 998 W/m² | - |
| 1787423185 | 24.44° C | 65% | 1013.6 hPa | 0 mm | - | 998 W/m² | - |
| 1787422959 | 23.89° C | 66% | 1013.6 hPa | 0 mm | - | 953 W/m² | - |
| 1787422584 | 23.89° C | 66% | 1013.6 hPa | 0 mm | - | 953 W/m² | - |
| 1787422349 | 23.89° C | 65% | 1013.6 hPa | 0 mm | - | 833 W/m² | - |
| 1787421984 | 23.89° C | 65% | 1013.6 hPa | 0 mm | - | 833 W/m² | - |
| 1787421699 | 23.89° C | 66% | 1013.6 hPa | 0 mm | - | 973 W/m² | - |
| 1787421026 | 23.89° C | 69% | 1013.7 hPa | 0 mm | - | 953 W/m² | - |
| 1787420782 | 23.89° C | 69% | 1013.7 hPa | 0 mm | - | 953 W/m² | - |
* Rain latest hour (hover to see other rain measurements)
** Current wind speed in m/s (hover to see current wind gust speed)